Find Local Weather

World > North America > United States > Wisconsin

Green Lake, Wisconsin Regional Weather

Lat: 43.84N, Lon: 88.96W
Wx Zone: WIZ047
Feedback
Expires:201806250800;;078467
ASUS43 KMKX 250721
RWRWI 

WISCONSIN REGIONAL WEATHER ROUNDUP
NATIONAL WEATHER SERVICE MILWAUKEE/SULLIVAN WI
200 AM CDT MON JUN 25 2018

NOTE: "FAIR" INDICATES FEW OR NO CLOUDS BELOW 12,000 FEET WITH NO
SIGNIFICANT WEATHER AND/OR OBSTRUCTIONS TO VISIBILITY.


WIZ029-030-035-036-043>047-250800-
CENTRAL WISCONSIN
  
CITY           SKY/WX    TMP DP  RH WIND       PRES   REMARKS
WAUSAU         FAIR      60  54  80 E8        30.15S                  
MOSINEE        FAIR      59  54  82 E7        30.16F                  
MARSHFIELD     FAIR      62  58  86 E9        30.13S                  
STEVENS POINT  FAIR      59  55  85 E5        30.15F                  
WAUPACA        FAIR      63  56  79 NE6       30.15F                  
WAUTOMA        FAIR      62  54  74 E7        30.14F                  
WISC RAPIDS    FAIR      63  52  67 E7        30.14S                  
CAMP DOUGLAS   FAIR      64  60  87 E8        30.11S                  
$$
 

SKY/WX - Weather  TMP - Temperature  DP - Dewpoint  RH - Relative Humidity
WIND - Wind Direction/Speed PRES - Barometric Pressure